TimeCDT,TemperatureF,Dew PointF,Humidity,Sea Level PressureIn,VisibilityMPH,Wind Direction,Wind SpeedMPH,Gust SpeedMPH,PrecipitationIn,Events,Conditions,WindDirDegrees,DateUTC
12:53 AM,55.9,33.1,42,29.66,10.0,Calm,Calm,-,N/A,,Clear,0,2013-03-23 05:53:00
1:53 AM,55.0,33.1,43,29.65,10.0,South,4.6,-,N/A,,Clear,180,2013-03-23 06:53:00
2:53 AM,55.9,33.1,42,29.64,10.0,SSE,9.2,-,N/A,,Clear,150,2013-03-23 07:53:00
3:53 AM,54.0,32.0,43,29.62,10.0,South,10.4,-,N/A,,Clear,170,2013-03-23 08:53:00
4:53 AM,54.0,32.0,43,29.63,10.0,South,5.8,-,N/A,,Clear,190,2013-03-23 09:53:00
5:53 AM,52.0,32.0,47,29.64,10.0,South,10.4,-,N/A,,Clear,180,2013-03-23 10:53:00
6:53 AM,55.0,28.9,37,29.65,10.0,SW,9.2,-,N/A,,Clear,220,2013-03-23 11:53:00
7:53 AM,53.1,28.0,38,29.69,10.0,SW,10.4,-,N/A,,Clear,220,2013-03-23 12:53:00
8:53 AM,61.0,27.0,27,29.71,10.0,WSW,9.2,-,N/A,,Clear,250,2013-03-23 13:53:00
9:53 AM,69.1,27.0,21,29.72,10.0,West,12.7,19.6,N/A,,Clear,270,2013-03-23 14:53:00
10:53 AM,73.0,27.0,18,29.71,10.0,WNW,20.7,27.6,N/A,,Clear,300,2013-03-23 15:53:00
11:53 AM,73.9,23.0,15,29.70,10.0,West,26.5,34.5,N/A,,Clear,280,2013-03-23 16:53:00
12:53 PM,77.0,16.0,10,29.68,10.0,WNW,29.9,39.1,N/A,,Clear,290,2013-03-23 17:53:00
1:53 PM,78.1,12.0,8,29.65,10.0,West,24.2,36.8,N/A,,Clear,280,2013-03-23 18:53:00
3:53 PM,80.1,6.1,6,29.61,10.0,West,24.2,32.2,N/A,,Clear,280,2013-03-23 20:53:00
4:53 PM,80.1,1.0,5,29.59,10.0,WNW,23.0,39.1,N/A,,Clear,300,2013-03-23 21:53:00
5:53 PM,79.0,1.9,5,29.60,10.0,WNW,27.6,42.6,N/A,,Clear,290,2013-03-23 22:53:00
6:53 PM,77.0,3.9,6,29.61,10.0,WNW,25.3,36.8,N/A,,Clear,290,2013-03-23 23:53:00
7:53 PM,73.9,6.1,7,29.65,10.0,WNW,19.6,26.5,N/A,,Clear,290,2013-03-24 00:53:00
8:53 PM,71.1,3.9,7,29.67,10.0,West,15.0,23.0,N/A,,Mostly Cloudy,280,2013-03-24 01:53:00
9:53 PM,69.1,1.0,7,29.71,6.0,WNW,11.5,-,N/A,,Haze,300,2013-03-24 02:53:00
10:53 PM,61.0,-5.1,7,29.81,4.0,North,31.1,39.1,N/A,,Haze,10,2013-03-24 03:53:00
10:59 PM,59.0,-5.8,7,29.93,4.0,North,24.2,41.4,N/A,,Haze,10,2013-03-24 03:59:00
11:29 PM,53.6,-14.8,6,29.98,3.0,North,27.6,39.1,N/A,,Haze,360,2013-03-24 04:29:00
11:53 PM,53.1,-15.0,6,29.91,3.0,NNE,19.6,28.8,N/A,,Haze,20,2013-03-24 04:53:00